Location: Bacharowice
(49.9333°N, 19.5833°E)
Time: 08:04:23
(UTC+00:00)

Cosmos 2344 - Pass Details

Date: 26 September 2021
Orbit: 1235 x 3007 km, 63.3° (Epoch: 19 October)

Event Time Altitude Azimuth Distance (km) Brightness Sun altitude
Rises 21:15:47 0° 313° (NW) 4,381 7.2 -39.0°
Reaches altitude 10° 21:18:24 10° 317° (NW) 3,520 6.5 -39.1°
Maximum altitude 21:27:00 67° 40° (NE) 1,839 4.2 -39.7°
Enters shadow 21:27:20 66° 51° (NE) 1,857 4.2 -39.7°
